Location: Baia de Cri?
(46.1667°N, 22.7167°E)
Time: 22:36:31
(UTC+00:00)

Cosmos 1833 Rocket - Pass Details

Date: 15 January 2026
Orbit: 831 x 839 km, 71.0° (Epoch: 11 February)

Event Time Altitude Azimuth Distance (km) Brightness Sun altitude
Exits shadow 03:27:38 85° 279° (W) 845 2.5 -27.2°
Maximum altitude 03:27:44 86° 245° (WSW) 844 2.5 -27.1°
Drops below altitude 10° 03:33:20 10° 158° (SSE) 2,438 5.4 -26.2°
Sets 03:35:45 0° 157° (SSE) 3,367 6.2 -25.8°
